Location: Pl�tzky
(52.0521°N, 11.8020°E)
Time: 02:24:31
(UTC+00:00)

Cosmos 1689 Rocket - Pass Details

Date: 22 November 2019
Orbit: 375 x 389 km, 97.5° (Epoch: 06 December)

Event Time Altitude Azimuth Distance (km) Brightness Sun altitude
Rises 16:28:20 0° 5° (N) 2,295 5.8 -11.2°
Reaches altitude 10° 16:30:26 10° 355° (N) 1,435 4.8 -11.6°
Maximum altitude 16:33:10 30° 292° (WNW) 730 4.0 -12.0°
Drops below altitude 10° 16:35:53 10° 228° (SW) 1,426 6.0 -12.4°
Sets 16:37:58 0° 217° (SW) 2,277 6.9 -12.7°
